Wetterdaten: aktuell Samstag, 25.05.2019 12:54
Datum Zeit Temp. A. Feuchte A. Luftdruck Regen Wind Richtung Richtung Windben
25.05.2019 12:54 21,6 C 56 % 1014,2 hPa 0,0 l/m 0,0 km/h S 181 0,0 km/h
25.05.2019 12:49 21,9 C 55 % 1014,3 hPa 0,0 l/m 0,0 km/h S 181 0,0 km/h
25.05.2019 12:45 22,4 C 56 % 1014,3 hPa 0,0 l/m 0,0 km/h O 90 0,0 km/h
25.05.2019 12:44 22,5 C 56 % 1014,3 hPa 0,0 l/m 0,0 km/h O-SO 114 0,0 km/h
25.05.2019 12:40 21,7 C 56 % 1014,3 hPa 0,0 l/m 0,0 km/h S 171 0,0 km/h
25.05.2019 12:35 20,9 C 56 % 1014,4 hPa 0,0 l/m 0,0 km/h S 177 0,0 km/h
25.05.2019 12:30 20,9 C 57 % 1014,5 hPa 0,0 l/m 0,0 km/h S 170 0,0 km/h
25.05.2019 12:29 20,9 C 57 % 1014,5 hPa 0,0 l/m 0,0 km/h S 170 0,0 km/h
25.05.2019 12:25 21,1 C 61 % 1014,5 hPa 0,0 l/m 0,0 km/h S 176 0,0 km/h
25.05.2019 12:20 20,8 C 54 % 1014,4 hPa 0,0 l/m 0,0 km/h S-SO 155 0,0 km/h
25.05.2019 12:15 20,9 C 55 % 1014,4 hPa 0,0 l/m 0,0 km/h S 179 1,6 km/h
25.05.2019 12:10 20,9 C 56 % 1014,4 hPa 0,0 l/m 0,0 km/h S 184 0,0 km/h
25.05.2019 12:04 21,1 C 54 % 1014,4 hPa 0,0 l/m 0,0 km/h S 186 1,6 km/h
25.05.2019 12:00 21,4 C 56 % 1014,4 hPa 0,0 l/m 0,0 km/h S 182 1,6 km/h
25.05.2019 11:55 21,6 C 59 % 1014,4 hPa 0,0 l/m 0,0 km/h S-SW 212 0,0 km/h
25.05.2019 11:50 22,1 C 50 % 1014,4 hPa 0,0 l/m 0,0 km/h SO 146 0,0 km/h
25.05.2019 11:45 22,0 C 59 % 1014,5 hPa 0,0 l/m 0,1 km/h W-NW 282 4,8 km/h
25.05.2019 11:40 21,8 C 54 % 1014,5 hPa 0,0 l/m 0,0 km/h NW 318 0,0 km/h
25.05.2019 11:35 22,0 C 52 % 1014,5 hPa 0,0 l/m 0,0 km/h SW 222 0,0 km/h
25.05.2019 11:34 22,0 C 52 % 1014,5 hPa 0,0 l/m 0,0 km/h SW 222 1,6 km/h
25.05.2019 11:30 21,6 C 55 % 1014,6 hPa 0,0 l/m 0,0 km/h S-SW 204 0,0 km/h
25.05.2019 11:29 21,6 C 55 % 1014,6 hPa 0,0 l/m 0,0 km/h W 262 0,0 km/h
25.05.2019 11:25 21,2 C 49 % 1014,6 hPa 0,0 l/m 0,0 km/h SO 131 0,0 km/h
25.05.2019 11:20 20,9 C 55 % 1014,6 hPa 0,0 l/m 0,0 km/h S-SO 160 0,0 km/h
25.05.2019 11:15 20,7 C 58 % 1014,6 hPa 0,0 l/m 0,0 km/h SO 132 0,0 km/h
25.05.2019 11:14 20,7 C 55 % 1014,6 hPa 0,0 l/m 0,0 km/h SO 132 0,0 km/h
25.05.2019 11:10 20,6 C 57 % 1014,6 hPa 0,0 l/m 0,0 km/h SO 142 0,0 km/h
25.05.2019 11:04 20,9 C 60 % 1014,6 hPa 0,0 l/m 0,0 km/h SO 127 0,0 km/h
25.05.2019 11:00 21,4 C 51 % 1014,5 hPa 0,0 l/m 0,0 km/h O 95 0,0 km/h
25.05.2019 10:55 21,9 C 57 % 1014,5 hPa 0,0 l/m 0,0 km/h S 177 0,0 km/h
25.05.2019 10:50 21,9 C 54 % 1014,4 hPa 0,0 l/m 0,0 km/h SO 125 0,0 km/h
25.05.2019 10:45 21,7 C 53 % 1014,5 hPa 0,0 l/m 0,0 km/h S 185 0,0 km/h
25.05.2019 10:40 21,6 C 55 % 1014,4 hPa 0,0 l/m 0,0 km/h S 187 0,0 km/h
25.05.2019 10:35 21,6 C 57 % 1014,4 hPa 0,0 l/m 0,0 km/h SW 215 0,0 km/h
25.05.2019 10:30 21,7 C 57 % 1014,4 hPa 0,0 l/m 0,0 km/h S 181 0,0 km/h
25.05.2019 10:29 21,7 C 57 % 1014,4 hPa 0,0 l/m 0,0 km/h S 181 0,0 km/h
25.05.2019 10:25 21,1 C 60 % 1014,4 hPa 0,0 l/m 0,0 km/h S 174 0,0 km/h
25.05.2019 10:19 21,1 C 57 % 1014,4 hPa 0,0 l/m 0,0 km/h S-SO 158 0,0 km/h
25.05.2019 10:15 21,3 C 62 % 1014,5 hPa 0,0 l/m 0,0 km/h S 189 0,0 km/h
25.05.2019 10:14 21,3 C 62 % 1014,5 hPa 0,0 l/m 0,0 km/h S 189 0,0 km/h
25.05.2019 10:10 21,0 C 62 % 1014,5 hPa 0,0 l/m 0,0 km/h S 189 0,0 km/h
25.05.2019 10:05 21,1 C 59 % 1014,4 hPa 0,0 l/m 0,0 km/h O-SO 120 0,0 km/h
25.05.2019 09:59 20,1 C 57 % 1014,5 hPa 0,0 l/m 0,0 km/h SO 141 0,0 km/h
25.05.2019 09:55 20,4 C 56 % 1014,4 hPa 0,0 l/m 0,0 km/h SO 136 0,0 km/h
25.05.2019 09:50 20,5 C 59 % 1014,4 hPa 0,0 l/m 0,0 km/h S-SO 162 0,0 km/h
25.05.2019 09:45 20,6 C 66 % 1014,3 hPa 0,0 l/m 0,0 km/h S 183 0,0 km/h
25.05.2019 09:40 20,4 C 60 % 1014,4 hPa 0,0 l/m 0,0 km/h S-SO 167 0,0 km/h
25.05.2019 09:35 20,4 C 64 % 1014,5 hPa 0,0 l/m 0,0 km/h S 186 0,0 km/h
25.05.2019 09:34 20,4 C 64 % 1014,5 hPa 0,0 l/m 0,0 km/h S 186 0,0 km/h
25.05.2019 09:30 19,8 C 65 % 1014,5 hPa 0,0 l/m 0,0 km/h S-SO 168 0,0 km/h
25.05.2019 09:24 19,3 C 69 % 1014,5 hPa 0,0 l/m 0,0 km/h S-SO 152 0,0 km/h
25.05.2019 09:20 19,1 C 67 % 1014,5 hPa 0,0 l/m 0,0 km/h SO 141 0,0 km/h
25.05.2019 09:15 18,5 C 69 % 1014,5 hPa 0,0 l/m 0,0 km/h S-SO 148 0,0 km/h
25.05.2019 09:10 18,1 C 73 % 1014,5 hPa 0,0 l/m 0,0 km/h SO 125 0,0 km/h
25.05.2019 09:05 17,1 C 76 % 1014,5 hPa 0,0 l/m 0,0 km/h SO 125 0,0 km/h
25.05.2019 09:04 17,1 C 76 % 1014,5 hPa 0,0 l/m 0,0 km/h SO 125 0,0 km/h
25.05.2019 09:00 16,9 C 71 % 1014,6 hPa 0,0 l/m 0,0 km/h SO 125 0,0 km/h
25.05.2019 08:55 17,6 C 71 % 1014,6 hPa 0,0 l/m 0,0 km/h SO 133 0,0 km/h
25.05.2019 08:54 17,6 C 73 % 1014,6 hPa 0,0 l/m 0,0 km/h SO 134 0,0 km/h
25.05.2019 08:49 17,5 C 73 % 1014,5 hPa 0,0 l/m 0,0 km/h SO 134 0,0 km/h
25.05.2019 08:44 16,8 C 70 % 1014,5 hPa 0,0 l/m 0,0 km/h SO 134 0,0 km/h
25.05.2019 08:40 16,4 C 73 % 1014,5 hPa 0,0 l/m 0,0 km/h SO 132 0,0 km/h
25.05.2019 08:35 16,2 C 77 % 1014,5 hPa 0,0 l/m 0,0 km/h O-SO 123 0,0 km/h
25.05.2019 08:30 15,8 C 76 % 1014,5 hPa 0,0 l/m 0,0 km/h O-SO 123 0,0 km/h
25.05.2019 08:25 15,2 C 75 % 1014,5 hPa 0,0 l/m 0,0 km/h SO 125 0,0 km/h
25.05.2019 08:20 14,9 C 76 % 1014,5 hPa 0,0 l/m 0,0 km/h O-SO 102 0,0 km/h
25.05.2019 08:15 14,9 C 76 % 1014,5 hPa 0,0 l/m 0,0 km/h O-SO 102 0,0 km/h
25.05.2019 08:10 14,5 C 79 % 1014,5 hPa 0,0 l/m 0,0 km/h O-SO 102 0,0 km/h
25.05.2019 08:05 14,3 C 80 % 1014,6 hPa 0,0 l/m 0,0 km/h O-SO 102 0,0 km/h
25.05.2019 08:00 14,1 C 80 % 1014,6 hPa 0,0 l/m 0,0 km/h O-SO 102 0,0 km/h
25.05.2019 07:55 13,4 C 81 % 1014,5 hPa 0,0 l/m 0,0 km/h O-SO 102 0,0 km/h
25.05.2019 07:50 12,7 C 82 % 1014,5 hPa 0,0 l/m 0,0 km/h O-SO 102 0,0 km/h
25.05.2019 07:49 12,7 C 82 % 1014,5 hPa 0,0 l/m 0,0 km/h O-SO 102 0,0 km/h
25.05.2019 07:45 12,3 C 82 % 1014,5 hPa 0,0 l/m 0,0 km/h NW 316 0,0 km/h
25.05.2019 07:40 11,9 C 84 % 1014,4 hPa 0,0 l/m 0,0 km/h NW 316 0,0 km/h
25.05.2019 07:39 11,9 C 84 % 1014,4 hPa 0,0 l/m 0,0 km/h NW 316 0,0 km/h
25.05.2019 07:35 11,6 C 85 % 1014,4 hPa 0,0 l/m 0,0 km/h NW 316 0,0 km/h
25.05.2019 07:30 11,3 C 86 % 1014,3 hPa 0,0 l/m 0,0 km/h NW 316 0,0 km/h
25.05.2019 07:25 10,9 C 86 % 1014,4 hPa 0,0 l/m 0,0 km/h NW 316 0,0 km/h
25.05.2019 07:24 10,9 C 86 % 1014,4 hPa 0,0 l/m 0,0 km/h NW 316 0,0 km/h
25.05.2019 07:19 10,6 C 87 % 1014,3 hPa 0,0 l/m 0,0 km/h NW 316 0,0 km/h
25.05.2019 07:15 10,1 C 87 % 1014,3 hPa 0,0 l/m 0,0 km/h NW 316 0,0 km/h
25.05.2019 07:10 9,8 C 87 % 1014,3 hPa 0,0 l/m 0,0 km/h NW 316 0,0 km/h
25.05.2019 07:05 9,4 C 87 % 1014,3 hPa 0,0 l/m 0,0 km/h NW 316 0,0 km/h
25.05.2019 06:59 9,1 C 87 % 1014,2 hPa 0,0 l/m 0,0 km/h NW 316 0,0 km/h
25.05.2019 06:55 9,0 C 86 % 1014,2 hPa 0,0 l/m 0,0 km/h NW 316 0,0 km/h
25.05.2019 06:50 9,1 C 87 % 1014,3 hPa 0,0 l/m 0,0 km/h NW 316 0,0 km/h
25.05.2019 06:45 9,0 C 87 % 1014,2 hPa 0,0 l/m 0,0 km/h NW 316 0,0 km/h
25.05.2019 06:40 9,1 C 87 % 1014,2 hPa 0,0 l/m 0,0 km/h NW 316 0,0 km/h
25.05.2019 06:35 9,0 C 87 % 1014,1 hPa 0,0 l/m 0,0 km/h NW 316 0,0 km/h
25.05.2019 06:34 9,0 C 86 % 1014,1 hPa 0,0 l/m 0,0 km/h NW 316 0,0 km/h
25.05.2019 06:30 9,0 C 87 % 1014,1 hPa 0,0 l/m 0,0 km/h NW 316 0,0 km/h
25.05.2019 06:24 8,9 C 87 % 1014,1 hPa 0,0 l/m 0,0 km/h NW 316 0,0 km/h
25.05.2019 06:20 8,9 C 87 % 1014,1 hPa 0,0 l/m 0,0 km/h NW 316 0,0 km/h
25.05.2019 06:15 8,8 C 87 % 1014,2 hPa 0,0 l/m 0,0 km/h NW 316 0,0 km/h
25.05.2019 06:10 8,7 C 87 % 1014,1 hPa 0,0 l/m 0,0 km/h NW 316 0,0 km/h
25.05.2019 06:05 8,7 C 86 % 1014,0 hPa 0,0 l/m 0,0 km/h W-NW 302 0,0 km/h
_ Min-Zeit 05:55 17:20 17:34 - 13:00 - - 13:04
Minimum _ 8,7 C 42 % 1011,8 hPa - 0,0 km/h - - 0,0 km/h
_ Max-Zeit 16:45 06:10 08:00 13:00 00:30 - - 17:30
Maximum _ 23,0 C 87 % 1014,6 hPa 0,0 l/m 1,5 km/h
N
- - 12,9 km/h
NO
Durchschnitt _ 16,5 C 66 % 1013,5 hPa #0,0 l/m 0,0 km/h N - 0,4 km/h